CW2718 Weather Reports


time (UTC)temp
C
wind
direction
speed
KPH
gust
KPH
rain 1hr
cm
rain 24hr
cm
rain mn
cm
humidity
%
barometer
mb
20260510162128 23 251 0.0 6.4 0.00 0.41 0.00 56 1011.7
20260510160127 22 191 0.0 8.0 0.00 0.41 0.00 60 1011.6
20260510155127 22 272 0.0 1.6 0.00 0.41 0.00 63 1011.7
20260510154127 22 244 0.0 0.0 0.00 0.41 0.00 64 1011.8
20260510153127 22 267 0.0 1.6 0.00 0.41 0.00 63 1012.0
20260510152127 21 222 0.0 0.0 0.00 0.41 0.00 64 1012.0
20260510151127 20 222 0.0 0.0 0.00 0.41 0.00 70 1011.8
20260510145127 19 300 0.0 0.0 0.00 0.41 0.00 74 1011.9
20260510144126 18 225 0.0 4.8 0.00 0.41 0.00 76 1011.9
20260510143127 17 284 0.0 6.4 0.00 0.41 0.00 79 1011.9
20260510141127 17 193 0.0 0.0 0.00 0.41 0.00 82 1011.9
20260510140127 16 265 0.0 3.2 0.00 0.41 0.00 82 1011.8
20260510135127 17 213 0.0 4.8 0.00 0.41 0.00 81 1011.8
20260510134127 16 153 0.0 0.0 0.00 0.41 0.00 85 1011.7
20260510133127 16 199 0.0 0.0 0.00 0.41 0.00 87 1011.7
20260510132127 14 198 0.0 0.0 0.00 0.41 0.00 92 1011.7
20260510131127 15 198 0.0 0.0 0.00 0.41 0.00 93 1011.7
20260510130127 13 198 0.0 0.0 0.00 0.41 0.00 94 1011.8
20260510125127 13 198 0.0 0.0 0.00 0.41 0.00 95 1012.0
20260510124127 13 139 0.0 0.0 0.00 0.41 0.00 96 1011.8
20260510123126 13 139 0.0 0.0 0.00 0.41 0.00 96 1011.6
20260510122128 12 139 0.0 0.0 0.00 0.41 0.00 97 1011.5
20260510122033 11 135 0.0 0.0 0.00 0.41 0.00 96 1011.4